Simultaneous Nadir Overpasses (SNOs) Predictions

Prediction of SNOs between GOES-17 and NOAA-19 Satellite Orbit:

Table of predicted SNOs for the next 14.0 days since TLE Epoch: 8/15/2025
Index Date Time (GOES-17) GOES-17 Lat,Lon NOAA-19 Lat,Lon Distance(km) Time Diff (sec)
1 08/16/2025 03:56:38 -0.05, -89.48 -0.26, -90.35 100.49 80
2 08/17/2025 03:41:19 -0.04, -89.48 0.48, -87.29 249.92 80
3 08/19/2025 16:02:25 0.07, -89.52 0.59, -91.68 247.48 80
4 08/20/2025 15:47:06 0.06, -89.52 -0.12, -88.61 103.25 80
5 08/21/2025 15:34:26 0.05, -89.52 -0.83, -85.54 454.14 80
6 08/23/2025 04:08:24 -0.08, -89.49 -0.89, -93.07 407.12 80
7 08/24/2025 03:55:45 -0.07, -89.50 -0.19, -89.99 55.72 80
8 08/25/2025 03:40:25 -0.06, -89.52 0.50, -86.92 295.85 80
9 08/27/2025 16:01:30 0.09, -89.59 0.50, -91.31 197.03 80
10 08/28/2025 15:46:11 0.08, -89.60 -0.21, -88.24 154.85 80
